When you browse on this site, cookies collect data to enhance your experience and personalize the content and advertising you see.
Visit our Privacy Policy to learn more. By continuing to use the site, you agree to this use of cookies and data.
  • In United Kingdom
  • List of Countries
  • For 7 days
  • Water Temperature
  • Satellite Maps
  • Weather Map
  • Weather Widgets
  • user-avatar
    Login

    Hourly Weather Bedford

    Today, 23 July, Tuesday

    Time Temperature Precipitation Wind Pressure Humidity
    00:00 +20°C° 0 mm 1 mps 762 mmHg 95%
    01:00 +20°C° 0 mm 1 mps 762 mmHg 95%
    02:00 +19°C° 0 mm 1 mps 762 mmHg 95%
    03:00 +17°C° 0 mm 0 mps 762 mmHg 95%
    04:00 +18°C° 0 mm 0 mps 762 mmHg 94%
    05:00 +20°C° 0 mm 1 mps 762 mmHg 94%
    06:00 +21°C° 0 mm 1 mps 761 mmHg 93%
    07:00 +21°C° 0 mm 2 mps 761 mmHg 86%
    08:00 +24°C° 0 mm 2 mps 761 mmHg 78%
    09:00 +25°C° 0 mm 2 mps 761 mmHg 71%
    10:00 +27°C° 0 mm 3 mps 761 mmHg 66%
    11:00 +28°C° 0 mm 3 mps 760 mmHg 61%
    12:00 +29°C° 0 mm 3 mps 760 mmHg 56%
    13:00 +30°C° 0 mm 3 mps 760 mmHg 55%
    14:00 +30°C° 0 mm 4 mps 759 mmHg 54%
    15:00 +32°C° 0 mm 4 mps 759 mmHg 53%
    16:00 +30°C° 0 mm 4 mps 758 mmHg 58%
    17:00 +29°C° 0 mm 4 mps 758 mmHg 63%
    18:00 +28°C° 0 mm 4 mps 757 mmHg 68%
    19:00 +27°C° 0 mm 5 mps 757 mmHg 69%
    20:00 +25°C° 0 mm 5 mps 757 mmHg 71%
    21:00 +23°C° 0 mm 6 mps 757 mmHg 72%
    22:00 +23°C° 0.3 mm 5 mps 756 mmHg 73%
    23:00 +23°C° 0.3 mm 5 mps 756 mmHg 73%

    Tomorrow, 24 July, Wednesday

    Time Temperature Precipitation Wind Pressure Humidity
    00:00 +23°C° 0.3 mm 4 mps 756 mmHg 73%
    01:00 +23°C° 0.1 mm 5 mps 755 mmHg 72%
    02:00 +23°C° 0.1 mm 5 mps 755 mmHg 71%
    03:00 +23°C° 0.1 mm 6 mps 754 mmHg 70%
    04:00 +23°C° 0.6 mm 5 mps 754 mmHg 75%
    05:00 +22°C° 0.6 mm 4 mps 754 mmHg 79%
    06:00 +22°C° 0.6 mm 3 mps 754 mmHg 83%
    07:00 +24°C° 0 mm 3 mps 754 mmHg 80%
    08:00 +25°C° 0 mm 3 mps 755 mmHg 78%
    09:00 +26°C° 0 mm 3 mps 755 mmHg 75%
    10:00 +27°C° 0 mm 3 mps 755 mmHg 71%
    11:00 +28°C° 0 mm 3 mps 755 mmHg 67%
    12:00 +29°C° 0 mm 4 mps 755 mmHg 63%
    13:00 +29°C° 0 mm 4 mps 755 mmHg 61%
    14:00 +29°C° 0 mm 4 mps 756 mmHg 59%
    15:00 +29°C° 0 mm 4 mps 756 mmHg 56%
    16:00 +29°C° 0 mm 3 mps 756 mmHg 61%
    17:00 +28°C° 0 mm 2 mps 756 mmHg 65%
    18:00 +28°C° 0 mm 2 mps 756 mmHg 69%
    19:00 +26°C° 0 mm 2 mps 756 mmHg 73%
    20:00 +25°C° 0 mm 2 mps 756 mmHg 78%
    21:00 +23°C° 0 mm 2 mps 757 mmHg 83%
    22:00 +21°C° 0 mm 2 mps 757 mmHg 84%
    23:00 +22°C° 0 mm 1 mps 756 mmHg 84%

    Day after tomorrow, 25 July, Thursday

    Time Temperature Precipitation Wind Pressure Humidity
    00:00 +21°C° 0 mm 1 mps 756 mmHg 85%
    01:00 +21°C° 0 mm 1 mps 756 mmHg 86%
    02:00 +21°C° 0 mm 1 mps 756 mmHg 86%
    03:00 +21°C° 0 mm 1 mps 756 mmHg 86%
    04:00 +20°C° 0 mm 2 mps 755 mmHg 85%
    05:00 +21°C° 0 mm 2 mps 755 mmHg 84%
    06:00 +23°C° 0 mm 2 mps 755 mmHg 83%
    07:00 +24°C° 0 mm 3 mps 755 mmHg 77%
    08:00 +26°C° 0 mm 3 mps 755 mmHg 72%
    09:00 +28°C° 0 mm 4 mps 755 mmHg 66%
    10:00 +30°C° 0 mm 4 mps 755 mmHg 63%
    11:00 +32°C° 0 mm 5 mps 754 mmHg 59%
    12:00 +34°C° 0 mm 5 mps 754 mmHg 56%
    13:00 +34°C° 0 mm 5 mps 754 mmHg 56%
    14:00 +34°C° 0 mm 5 mps 754 mmHg 56%
    15:00 +34°C° 0 mm 5 mps 754 mmHg 56%
    16:00 +33°C° 0 mm 4 mps 753 mmHg 62%
    17:00 +30°C° 0 mm 3 mps 753 mmHg 67%
    18:00 +29°C° 0 mm 2 mps 753 mmHg 73%
    19:00 +28°C° 0 mm 2 mps 753 mmHg 75%
    20:00 +26°C° 0 mm 2 mps 754 mmHg 78%
    21:00 +25°C° 0 mm 2 mps 754 mmHg 80%
    22:00 +24°C° 0.6 mm 3 mps 754 mmHg 81%
    23:00 +21°C° 0.6 mm 3 mps 754 mmHg 82%

    26 July, Friday

    Time Temperature Precipitation Wind Pressure Humidity
    00:00 +20°C° 0.6 mm 4 mps 755 mmHg 83%
    01:00 +20°C° 0.2 mm 3 mps 755 mmHg 85%
    02:00 +19°C° 0.2 mm 3 mps 755 mmHg 88%
    03:00 +18°C° 0.2 mm 3 mps 755 mmHg 90%
    04:00 +19°C° 0.1 mm 3 mps 755 mmHg 89%
    05:00 +19°C° 0.1 mm 3 mps 755 mmHg 88%
    06:00 +19°C° 0.1 mm 3 mps 756 mmHg 87%
    07:00 +20°C° 0 mm 2 mps 756 mmHg 80%
    08:00 +21°C° 0 mm 2 mps 756 mmHg 73%
    09:00 +24°C° 0 mm 1 mps 756 mmHg 66%
    10:00 +25°C° 0 mm 2 mps 756 mmHg 63%
    11:00 +25°C° 0 mm 3 mps 756 mmHg 59%
    12:00 +26°C° 0 mm 3 mps 756 mmHg 56%
    13:00 +27°C° 0 mm 3 mps 756 mmHg 56%
    14:00 +27°C° 0 mm 2 mps 756 mmHg 56%
    15:00 +27°C° 0 mm 2 mps 756 mmHg 55%
    16:00 +27°C° 0 mm 2 mps 756 mmHg 59%
    17:00 +26°C° 0 mm 2 mps 756 mmHg 63%
    18:00 +26°C° 0 mm 2 mps 755 mmHg 66%
    19:00 +25°C° 0 mm 2 mps 755 mmHg 70%
    20:00 +23°C° 0 mm 2 mps 755 mmHg 73%
    21:00 +20°C° 0 mm 2 mps 755 mmHg 77%
    22:00 +20°C° 0 mm 2 mps 755 mmHg 79%
    23:00 +20°C° 0 mm 2 mps 755 mmHg 82%

    27 July, Saturday

    Time Temperature Precipitation Wind Pressure Humidity
    00:00 +19°C° 0 mm 2 mps 754 mmHg 84%
    01:00 +19°C° 0.2 mm 2 mps 754 mmHg 86%
    02:00 +19°C° 0.2 mm 2 mps 754 mmHg 87%
    03:00 +18°C° 0.2 mm 3 mps 753 mmHg 88%
    04:00 +19°C° 0.3 mm 3 mps 753 mmHg 88%
    05:00 +19°C° 0.3 mm 3 mps 753 mmHg 88%
    06:00 +19°C° 0.3 mm 3 mps 753 mmHg 87%
    07:00 +20°C° 0.2 mm 4 mps 753 mmHg 85%
    08:00 +21°C° 0.2 mm 4 mps 752 mmHg 83%
    09:00 +22°C° 0.2 mm 4 mps 752 mmHg 81%
    10:00 +23°C° 0.2 mm 4 mps 752 mmHg 81%
    11:00 +23°C° 0.2 mm 4 mps 752 mmHg 81%
    12:00 +25°C° 0.2 mm 4 mps 752 mmHg 81%
    13:00 +25°C° 0.3 mm 4 mps 752 mmHg 81%
    14:00 +23°C° 0.3 mm 4 mps 751 mmHg 81%
    15:00 +23°C° 0.3 mm 4 mps 751 mmHg 81%
    16:00 +22°C° 1.2 mm 4 mps 751 mmHg 85%
    17:00 +21°C° 1.2 mm 4 mps 751 mmHg 89%
    18:00 +19°C° 1.2 mm 4 mps 751 mmHg 93%
    19:00 +19°C° 0.9 mm 5 mps 751 mmHg 93%
    20:00 +17°C° 0.9 mm 6 mps 751 mmHg 93%
    21:00 +17°C° 0.9 mm 6 mps 751 mmHg 94%
    22:00 +17°C° 0 mm 6 mps 751 mmHg 94%
    23:00 +16°C° 0 mm 6 mps 751 mmHg 94%

    28 July, Sunday

    Time Temperature Precipitation Wind Pressure Humidity
    00:00 +16°C° 0 mm 5 mps 751 mmHg 93%
    01:00 +16°C° 0 mm 5 mps 751 mmHg 93%
    02:00 +16°C° 0 mm 5 mps 751 mmHg 93%
    03:00 +17°C° 0 mm 4 mps 752 mmHg 92%
    04:00 +17°C° 0 mm 4 mps 752 mmHg 93%
    05:00 +15°C° 0 mm 4 mps 752 mmHg 93%
    06:00 +15°C° 0 mm 4 mps 752 mmHg 93%
    07:00 +17°C° 0.4 mm 3 mps 753 mmHg 91%
    08:00 +17°C° 0.4 mm 3 mps 753 mmHg 89%
    09:00 +18°C° 0.4 mm 2 mps 753 mmHg 88%
    10:00 +19°C° 0 mm 2 mps 754 mmHg 82%
    11:00 +19°C° 0 mm 2 mps 754 mmHg 77%
    12:00 +20°C° 0 mm 2 mps 754 mmHg 71%
    13:00 +21°C° 0.1 mm 2 mps 754 mmHg 69%
    14:00 +22°C° 0.1 mm 1 mps 754 mmHg 67%
    15:00 +23°C° 0.1 mm 1 mps 754 mmHg 65%
    16:00 +23°C° 0.3 mm 1 mps 754 mmHg 66%
    17:00 +23°C° 0.3 mm 1 mps 754 mmHg 68%
    18:00 +23°C° 0.3 mm 1 mps 755 mmHg 69%
    19:00 +21°C° 0.1 mm 1 mps 755 mmHg 75%
    20:00 +20°C° 0.1 mm 1 mps 755 mmHg 80%
    21:00 +18°C° 0.1 mm 1 mps 756 mmHg 86%
    22:00 +17°C° 0 mm 2 mps 756 mmHg 88%
    23:00 +16°C° 0 mm 2 mps 756 mmHg 90%
    Show more